Location: Il Ritiro
(43.4167°N, 13.1333°E)
Time: 16:57:46
(UTC+00:00)

Cosmos 1825 Rocket - Pass Details

Date: 05 July 2020
Orbit: 603 x 631 km, 82.5° (Epoch: 11 August)

Event Time Altitude Azimuth Distance (km) Brightness Sun altitude
Exits shadow 20:10:14 - 182° (S) 2,182 5.9 -11.8°
Reaches altitude 10° 20:10:42 10° 182° (S) 1,992 5.7 -11.9°
Maximum altitude 20:15:07 78° 97° (E) 648 3.5 -12.4°
Drops below altitude 10° 20:19:35 10° 11° (N) 2,020 6.7 -12.9°
Sets 20:21:51 0° 10° (N) 2,934 7.6 -13.2°
